Home > Weather > Valdivia > Past weeks

Flag for Chile Weather for the Past 2 Weeks in Valdivia, Chile

Now
61 °F

Broken clouds.


Feels Like: 61 °F
Forecast: 51 / 64 °F
Wind: 5 mph from Southeast

Location: Puerto Montt Airport

Current Time: May 6, 2016 at 2:34:13 PM

Latest Report: May 6, 2016 at 2:00 PM


Visibility: N/A

Pressure: 30.12 "Hg

Humidity: 72%

Dew Point: 52 °F

Location of ValdiviaLocation

Historic Weather in Valdivia — Graph

°F

Valdivia Temperature Yesterday

Maximum temperature yesterday: 61 °F (at 2:00 PM)
Minimum temperature yesterday: 48 °F (at 12:00 AM)
Average temperature yesterday: 53 °F

High & Low Weather Summary for the Past Weeks

 TemperatureHumidityPressure
High68 °F (May 2, 5:00 PM)100% (Apr 22, 11:00 PM)30.45 "Hg (Apr 22, 11:00 PM)
Low32 °F (Apr 25, 6:00 AM)37% (Apr 29, 1:00 PM)29.65 "Hg (Apr 22, 6:00 PM)
Average50 °F85%30.04 "Hg
* Reported Apr 21 1:00 PM — May 6 1:00 PM, Valdivia, Weather by CustomWeather, © 2016

Note: Actual official high and low records may vary slightly from our data, if they occured in-between our weather recording intervals... More about our weather records

Advertising

Valdivia Weather History for the Previous 24 Hours

Scroll right to see more
 ConditionsComfort  
Time TempWeatherWind HumidityBarometerVisibility
1:00 PM
Fri, May 6
57 °FMore clouds than sun.No wind82%30.12 "HgN/A
12:00 PM55 °FMore clouds than sun.3 mph94%30.12 "HgN/A
11:00 AM54 °FBroken clouds.No wind94%30.12 "HgN/A
9:00 AM52 °FMostly cloudy.2 mph94%30.12 "HgN/A
8:00 AM52 °FFog.1 mph100%30.12 "Hg4 mi
7:00 AM52 °FFog.No wind100%30.12 "Hg3 mi
6:00 AM52 °FFog.No wind100%30.09 "Hg3 mi
5:00 AM52 °FFog.1 mph100%30.09 "Hg3 mi
4:00 AM52 °FFog.No wind100%30.09 "Hg1 mi
3:00 AM52 °FFog.No wind100%30.09 "Hg1 mi
2:00 AM52 °FFog.No wind100%30.09 "Hg1 mi
1:00 AM54 °FFog.1 mph94%30.09 "Hg1 mi
12:00 AM54 °FFog.No wind94%30.09 "Hg1 mi
11:00 PM
Thu, May 5
54 °FFog.1 mph94%30.09 "Hg1 mi
10:00 PM54 °FLight rain. Overcast.1 mph94%30.07 "Hg3 mi
9:00 PM54 °FLight rain. Overcast.2 mph94%30.07 "HgN/A
8:00 PM55 °FLight rain. Overcast.No wind94%30.07 "Hg4 mi
7:00 PM55 °FScattered showers. Overcast.2 mph94%30.07 "Hg4 mi
6:00 PM57 °FLight rain. Overcast.3 mph88%30.04 "Hg4 mi
5:00 PM57 °FLight rain. Overcast.3 mph94%30.04 "Hg4 mi
4:00 PM59 °FLight rain. Overcast.3 mph88%30.04 "Hg4 mi
3:00 PM59 °FLight rain. Overcast.3 mph88%30.04 "Hg5 mi
2:00 PM61 °FOvercast.5 mph77%30.01 "Hg4 mi
Weather by CustomWeather, © 2016

See weather overviewHow to use our weather pages